KJ4W Weather Reports


time (UTC)temp
C
wind
direction
speed
KPH
gust
KPH
rain 1hr
cm
rain 24hr
cm
rain mn
cm
humidity
%
barometer
mb
20260906004136 28 298 0.0 0.0 0.00 0.00 0.00 81 1010.0
20260906002635 29 298 0.0 0.0 0.00 0.00 0.00 79 1010.0
20260906001135 30 298 0.0 0.0 0.00 0.00 0.00 74 1010.0
20260905235634 31 298 0.0 0.0 0.00 0.00 0.00 70 1010.2
20260905234135 32 298 0.0 0.0 0.00 0.00 0.00 66 1010.2
20260905232634 33 298 0.0 0.0 0.00 0.00 0.00 62 1010.1
20260905231136 33 298 0.0 0.0 0.00 0.00 0.00 60 1010.2
20260905225634 33 298 0.0 0.0 0.00 0.00 0.00 61 1010.2
20260905224136 34 298 0.0 0.0 0.00 0.00 0.00 60 1010.2
20260905222635 34 332 0.0 0.0 0.00 0.00 0.00 57 1010.1
20260905221136 35 12 0.0 0.0 0.00 0.00 0.00 54 1010.2
20260905215634 35 355 0.0 0.0 0.00 0.00 0.00 50 1010.2
20260905214135 35 344 0.0 0.0 0.00 0.00 0.00 50 1010.4
20260905212634 36 227 0.0 0.0 0.00 0.00 0.00 47 1010.5
20260905211135 36 166 0.0 0.0 0.00 0.00 0.00 46 1010.5
20260905205635 37 46 3.2 0.0 0.00 0.00 0.00 45 1010.6
20260905204134 37 355 0.0 0.0 0.00 0.00 0.00 43 1010.7
20260905202634 37 184 4.8 0.0 0.00 0.00 0.00 46 1010.8
20260905201135 37 268 1.6 0.0 0.00 0.00 0.00 51 1011.1
20260905195634 37 261 3.2 0.0 0.00 0.00 0.00 50 1011.2
20260905194135 37 274 1.6 0.0 0.00 0.00 0.00 47 1011.6
20260905192634 37 92 1.6 0.0 0.00 0.00 0.00 49 1012.0
20260905191135 36 143 0.0 0.0 0.00 0.00 0.00 48 1012.3
20260905185634 36 247 4.8 0.0 0.00 0.00 0.00 51 1012.3
20260905184134 36 280 6.4 0.0 0.00 0.00 0.00 54 1012.4
20260905182633 36 346 4.8 0.0 0.00 0.00 0.00 50 1012.6
20260905181135 36 28 1.6 0.0 0.00 0.00 0.00 50 1012.8
20260905175640 36 32 4.8 0.0 0.00 0.00 0.00 52 1012.9
20260905174134 35 32 0.0 0.0 0.00 0.00 0.00 61 1013.2
20260905172633 36 94 0.0 0.0 0.00 0.00 0.00 53 1013.2
20260905171135 36 13 3.2 0.0 0.00 0.00 0.00 53 1013.3
20260905165635 36 229 1.6 0.0 0.00 0.00 0.00 52 1013.4
20260905164134 35 248 3.2 0.0 0.00 0.00 0.00 54 1013.5
20260905162633 35 213 1.6 0.0 0.00 0.00 0.00 55 1013.7
20260905161136 35 228 0.0 0.0 0.00 0.00 0.00 57 1013.7
20260905155635 34 161 0.0 0.0 0.00 0.00 0.00 57 1013.8
20260905154135 33 261 0.0 0.0 0.00 0.00 0.00 66 1014.0
20260905152635 32 268 0.0 0.0 0.00 0.00 0.00 65 1014.1
20260905151134 32 242 0.0 0.0 0.00 0.00 0.00 69 1014.2
20260905145633 31 275 0.0 0.0 0.00 0.00 0.00 73 1014.3
20260905144133 30 247 0.0 0.0 0.00 0.00 0.00 77 1014.2
20260905142635 29 245 0.0 0.0 0.00 0.00 0.00 81 1014.3
20260905141135 28 47 0.0 0.0 0.00 0.00 0.00 84 1014.2
20260905135635 27 54 0.0 0.0 0.00 0.00 0.00 91 1014.1
20260905134133 26 139 0.0 0.0 0.00 0.00 0.00 94 1014.0
20260905132634 25 139 0.0 0.0 0.00 0.00 0.00 96 1014.1
20260905131134 25 138 0.0 0.0 0.00 0.00 0.00 97 1014.1
20260905125633 24 139 0.0 0.0 0.00 0.00 0.00 97 1013.8
20260905124134 24 138 0.0 0.0 0.00 0.00 0.00 98 1013.9
20260905122634 23 139 0.0 0.0 0.00 0.00 0.00 98 1013.7
20260905121134 23 139 0.0 0.0 0.00 0.00 0.00 98 1013.6
20260905115634 23 139 0.0 0.0 0.00 0.00 0.00 98 1013.5
20260905114133 23 138 0.0 0.0 0.00 0.00 0.00 97 1013.4
20260905112633 23 138 0.0 0.0 0.00 0.00 0.00 97 1013.3
20260905111133 23 138 0.0 0.0 0.00 0.00 0.00 98 1013.2
20260905105634 23 138 0.0 0.0 0.00 0.00 0.00 97 1013.3
20260905104135 23 139 0.0 0.0 0.00 0.00 0.00 97 1013.1
20260905102633 23 139 0.0 0.0 0.00 0.00 0.00 97 1012.9
20260905095632 23 139 0.0 0.0 0.00 0.00 0.00 97 1012.9
20260905094134 23 138 0.0 0.0 0.00 0.00 0.00 97 1012.9
20260905092633 23 138 0.0 0.0 0.00 0.00 0.00 97 1012.8
20260905091133 23 139 0.0 0.0 0.00 0.00 0.00 97 1012.8
20260905085632 23 139 0.0 0.0 0.00 0.00 0.00 97 1012.8
20260905084134 23 139 0.0 0.0 0.00 0.00 0.00 97 1012.8
20260905082634 23 138 0.0 0.0 0.00 0.00 0.00 97 1012.8
20260905081133 23 139 0.0 0.0 0.00 0.00 0.00 96 1012.8
20260905075632 23 138 0.0 0.0 0.00 0.00 0.00 96 1012.8
20260905074135 23 66 0.0 0.0 0.00 0.00 0.00 97 1012.9
20260905072633 23 66 0.0 0.0 0.00 0.00 0.00 96 1012.9
20260905071135 23 66 0.0 0.0 0.00 0.00 0.00 96 1012.9
20260905065633 24 66 0.0 0.0 0.00 0.00 0.00 96 1012.9
20260905064132 24 66 0.0 0.0 0.00 0.00 0.00 95 1013.1
20260905062632 24 66 0.0 0.0 0.00 0.00 0.00 95 1013.1
20260905061134 24 66 0.0 0.0 0.00 0.00 0.00 94 1013.1
20260905055633 24 66 0.0 0.0 0.00 0.00 0.00 94 1013.1
20260905054133 24 66 0.0 0.0 0.00 0.00 0.00 94 1013.3
20260905052632 25 66 0.0 0.0 0.00 0.00 0.00 94 1013.3
20260905051133 25 66 0.0 0.0 0.00 0.00 0.00 94 1013.3
20260905045633 25 66 0.0 0.0 0.00 0.00 0.00 94 1013.3
20260905044132 25 66 0.0 0.0 0.00 0.00 0.00 94 1013.2
20260905042632 25 66 0.0 0.0 0.00 0.00 0.00 94 1013.3
20260905041133 25 66 0.0 0.0 0.00 0.00 0.00 93 1013.3
20260905035633 25 66 0.0 0.0 0.00 0.00 0.00 93 1013.5
20260905034132 25 66 0.0 0.0 0.00 0.00 0.00 93 1013.4
20260905032631 25 66 0.0 0.0 0.00 0.00 0.00 92 1013.7
20260905031133 25 66 0.0 0.0 0.00 0.00 0.00 92 1013.7
20260905025632 26 66 0.0 0.0 0.00 0.00 0.00 91 1013.6
20260905024132 26 66 0.0 0.0 0.00 0.00 0.00 90 1013.6
20260905022631 26 66 0.0 0.0 0.00 0.00 0.00 89 1013.6
20260905021133 26 66 0.0 0.0 0.00 0.00 0.00 88 1013.6
20260905015632 26 66 0.0 0.0 0.00 0.00 0.00 86 1013.5
20260905014132 27 66 0.0 0.0 0.00 0.00 0.00 86 1013.4
20260905012631 27 66 0.0 0.0 0.00 0.00 0.00 85 1013.3
20260905011133 27 66 0.0 0.0 0.00 0.00 0.00 83 1013.1
20260905005632 28 66 0.0 0.0 0.00 0.00 0.00 82 1012.9